Time,TemperatureF,DewpointF,PressureIn,WindDirection,WindDirectionDegrees,WindSpeedMPH,WindSpeedGustMPH,Humidity,HourlyPrecipIn,Conditions,Clouds,dailyrainin,SoftwareType,DateUTC
2013-10-25 00:00:00,37.0,11.3,29.44,West,267,1.8,3.8,34,0.00,,,0.00,WSDL version 342,2013-10-25 04:00:00,
2013-10-25 00:01:00,37.0,11.3,29.44,West,270,2.1,3.8,34,0.00,,,0.00,WSDL version 342,2013-10-25 04:01:00,
2013-10-25 00:03:00,37.0,11.2,29.44,WSW,245,2.2,3.8,34,0.00,,,0.00,WSDL version 342,2013-10-25 04:03:00,
2013-10-25 00:05:00,36.9,11.1,29.44,West,276,1.9,3.8,34,0.00,,,0.00,WSDL version 342,2013-10-25 04:05:00,
2013-10-25 00:06:00,36.9,11.1,29.44,WNW,284,1.7,3.8,34,0.00,,,0.00,WSDL version 342,2013-10-25 04:06:00,
2013-10-25 00:08:00,36.9,11.1,29.44,West,273,1.4,3.4,34,0.00,,,0.00,WSDL version 342,2013-10-25 04:08:00,
2013-10-25 00:09:00,36.9,11.1,29.44,West,267,1.3,3.4,34,0.00,,,0.00,WSDL version 342,2013-10-25 04:09:00,
2013-10-25 00:14:00,36.6,10.9,29.44,WSW,251,1.2,2.5,34,0.00,,,0.00,WSDL version 342,2013-10-25 04:14:00,
2013-10-25 00:19:00,36.4,10.7,29.44,WNW,289,0.0,2.5,34,0.00,,,0.00,WSDL version 342,2013-10-25 04:19:00,
2013-10-25 00:24:00,36.3,10.9,29.44,West,276,1.8,5.4,35,-99.99,,,-99.99,WSDL version 342,2013-10-25 04:24:00,
2013-10-25 00:29:00,36.1,11.5,29.44,WNW,293,2.5,5.4,36,0.00,,,0.00,WSDL version 342,2013-10-25 04:29:00,
2013-10-25 00:35:00,36.1,12.3,29.44,West,273,2.1,4.7,37,0.00,,,0.00,WSDL version 342,2013-10-25 04:35:00,
2013-10-25 00:40:00,35.9,12.3,29.44,West,259,2.5,3.8,38,0.00,,,0.00,WSDL version 342,2013-10-25 04:40:00,
2013-10-25 00:45:00,35.8,12.4,29.44,West,275,1.6,3.8,37,0.00,,,0.00,WSDL version 342,2013-10-25 04:45:00,
2013-10-25 00:50:00,35.6,11.9,29.44,WSW,239,1.2,3.1,37,0.00,,,0.00,WSDL version 342,2013-10-25 04:50:00,
2013-10-25 00:55:00,35.5,12.2,29.44,WNW,293,0.6,2.5,38,0.00,,,0.00,WSDL version 342,2013-10-25 04:55:00,
2013-10-25 01:00:00,35.3,12.2,29.44,West,273,0.9,2.5,38,0.00,,,0.00,WSDL version 342,2013-10-25 05:00:00,
2013-10-25 01:05:00,35.1,12.0,29.44,West,273,1.4,2.5,38,0.00,,,0.00,WSDL version 342,2013-10-25 05:05:00,
2013-10-25 01:10:00,35.1,12.9,29.44,West,280,1.8,2.5,40,0.00,,,0.00,WSDL version 342,2013-10-25 05:10:00,
2013-10-25 01:15:00,35.1,13.2,29.44,WNW,286,2.2,3.4,40,0.00,,,0.00,WSDL version 342,2013-10-25 05:15:00,
2013-10-25 01:20:00,35.1,13.2,29.44,WNW,283,1.7,3.4,40,0.00,,,0.00,WSDL version 342,2013-10-25 05:20:00,
2013-10-25 01:25:00,35.0,13.1,29.44,West,281,2.1,2.9,40,0.00,,,0.00,WSDL version 342,2013-10-25 05:25:00,
2013-10-25 01:30:00,35.1,13.7,29.44,West,278,3.0,5.8,41,0.00,,,0.00,WSDL version 342,2013-10-25 05:30:00,
2013-10-25 01:35:00,35.2,13.8,29.44,WSW,241,3.1,4.0,41,0.00,,,0.00,WSDL version 342,2013-10-25 05:35:00,
2013-10-25 01:40:00,35.2,13.8,29.44,WNW,283,2.1,4.7,41,0.00,,,0.00,WSDL version 342,2013-10-25 05:40:00,
2013-10-25 01:45:00,35.2,13.7,29.44,WNW,289,2.6,4.7,40,0.00,,,0.00,WSDL version 342,2013-10-25 05:45:00,
2013-10-25 01:50:00,35.2,13.3,29.44,West,263,2.6,4.3,40,0.00,,,0.00,WSDL version 342,2013-10-25 05:50:00,
2013-10-25 01:55:00,35.2,13.3,29.44,West,278,2.5,4.3,40,-99.99,,,-99.99,WSDL version 342,2013-10-25 05:55:00,
2013-10-25 02:00:00,35.1,13.2,29.44,West,263,2.5,3.8,40,0.00,,,0.00,WSDL version 342,2013-10-25 06:00:00,
2013-10-25 02:05:00,35.0,13.1,29.44,West,264,2.6,4.7,40,0.00,,,0.00,WSDL version 342,2013-10-25 06:05:00,
2013-10-25 02:10:00,34.9,13.0,29.44,WNW,293,2.4,4.7,40,0.00,,,0.00,WSDL version 342,2013-10-25 06:10:00,
2013-10-25 02:15:00,34.8,13.5,29.44,West,274,2.2,3.6,41,0.00,,,0.00,WSDL version 342,2013-10-25 06:15:00,
2013-10-25 02:20:00,34.7,13.4,29.44,West,281,2.9,4.7,41,0.00,,,0.00,WSDL version 342,2013-10-25 06:20:00,
2013-10-25 02:25:00,34.7,13.4,29.44,WNW,284,3.2,4.9,41,0.00,,,0.00,WSDL version 342,2013-10-25 06:25:00,
2013-10-25 02:30:00,34.9,13.6,29.44,West,276,3.5,4.9,41,0.00,,,0.00,WSDL version 342,2013-10-25 06:30:00,
2013-10-25 02:35:00,35.0,14.2,29.44,West,266,3.4,5.8,42,0.00,,,0.00,WSDL version 342,2013-10-25 06:35:00,
2013-10-25 02:40:00,35.1,14.3,29.44,West,275,3.5,5.8,42,0.00,,,0.00,WSDL version 342,2013-10-25 06:40:00,
2013-10-25 02:45:00,35.1,14.2,29.47,West,274,3.5,5.8,41,0.00,,,0.00,WSDL version 342,2013-10-25 06:45:00,
2013-10-25 02:50:00,35.2,13.9,29.47,WNW,289,3.4,5.8,41,0.00,,,0.00,WSDL version 342,2013-10-25 06:50:00,
2013-10-25 02:55:00,35.4,14.1,29.47,WNW,283,3.7,5.8,41,0.00,,,0.00,WSDL version 342,2013-10-25 06:55:00,
2013-10-25 03:00:00,35.5,14.1,29.47,NW,320,3.6,5.6,41,0.00,,,0.00,WSDL version 342,2013-10-25 07:00:00,
2013-10-25 03:05:00,35.6,14.2,29.47,WNW,284,3.6,5.6,41,0.00,,,0.00,WSDL version 342,2013-10-25 07:05:00,
2013-10-25 03:10:00,35.6,14.2,29.47,West,262,3.9,6.5,41,0.00,,,0.00,WSDL version 342,2013-10-25 07:10:00,
2013-10-25 03:15:00,35.6,14.2,29.47,NW,305,4.4,6.5,41,0.00,,,0.00,WSDL version 342,2013-10-25 07:15:00,
2013-10-25 03:20:00,35.6,14.2,29.47,West,280,3.5,6.5,41,0.00,,,0.00,WSDL version 342,2013-10-25 07:20:00,
2013-10-25 03:25:00,35.6,14.2,29.47,West,276,3.5,5.8,41,0.00,,,0.00,WSDL version 342,2013-10-25 07:25:00,
2013-10-25 03:30:00,35.6,14.2,29.47,WNW,283,3.3,4.7,41,0.00,,,0.00,WSDL version 342,2013-10-25 07:30:00,
2013-10-25 03:35:00,35.5,14.1,29.47,West,259,3.5,7.6,41,0.00,,,0.00,WSDL version 342,2013-10-25 07:35:00,
2013-10-25 03:40:00,35.4,14.5,29.47,West,278,3.1,7.6,42,0.00,,,0.00,WSDL version 342,2013-10-25 07:40:00,
2013-10-25 03:45:00,35.4,14.6,29.47,West,270,3.1,5.4,42,0.00,,,0.00,WSDL version 342,2013-10-25 07:45:00,
2013-10-25 03:50:00,35.2,14.6,29.47,West,280,3.5,4.3,42,0.00,,,0.00,WSDL version 342,2013-10-25 07:50:00,
2013-10-25 03:55:00,35.2,14.8,29.47,WNW,289,3.3,4.7,43,0.00,,,0.00,WSDL version 342,2013-10-25 07:55:00,
2013-10-25 04:00:00,35.2,15.0,29.47,WNW,286,3.4,5.6,43,0.00,,,0.00,WSDL version 342,2013-10-25 08:00:00,
2013-10-25 04:05:00,35.2,15.0,29.47,NW,304,3.0,5.6,43,0.00,,,0.00,WSDL version 342,2013-10-25 08:05:00,
2013-10-25 04:10:00,35.2,15.0,29.47,West,279,3.3,4.3,43,0.00,,,0.00,WSDL version 342,2013-10-25 08:10:00,
2013-10-25 04:15:00,35.2,15.0,29.47,West,276,3.5,7.8,43,0.00,,,0.00,WSDL version 342,2013-10-25 08:15:00,
2013-10-25 04:21:00,35.2,14.9,29.47,West,280,3.1,7.8,43,0.00,,,0.00,WSDL version 342,2013-10-25 08:21:00,
2013-10-25 04:26:00,35.1,14.9,29.47,West,280,3.6,5.6,43,0.00,,,0.00,WSDL version 342,2013-10-25 08:26:00,
2013-10-25 04:31:00,35.1,14.8,29.50,West,276,2.8,7.2,43,-99.99,,,-99.99,WSDL version 342,2013-10-25 08:31:00,
2013-10-25 04:36:00,35.1,15.2,29.50,WNW,293,3.5,7.2,44,0.00,,,0.00,WSDL version 342,2013-10-25 08:36:00,
2013-10-25 04:41:00,35.1,15.3,29.50,WNW,286,2.8,4.7,44,0.00,,,0.00,WSDL version 342,2013-10-25 08:41:00,
2013-10-25 04:46:00,34.9,15.2,29.50,West,278,3.0,5.6,44,0.00,,,0.00,WSDL version 342,2013-10-25 08:46:00,
2013-10-25 04:51:00,34.9,15.2,29.47,West,273,2.7,5.8,44,-99.99,,,-99.99,WSDL version 342,2013-10-25 08:51:00,
2013-10-25 04:56:00,34.9,15.2,29.47,West,266,3.2,5.8,44,0.00,,,0.00,WSDL version 342,2013-10-25 08:56:00,
2013-10-25 05:01:00,34.8,15.2,29.50,West,278,2.6,4.3,45,0.00,,,0.00,WSDL version 342,2013-10-25 09:01:00,
2013-10-25 05:06:00,34.7,15.5,29.50,WNW,285,3.2,4.0,45,0.00,,,0.00,WSDL version 342,2013-10-25 09:06:00,
2013-10-25 05:11:00,34.7,15.6,29.50,West,281,3.1,4.0,46,0.00,,,0.00,WSDL version 342,2013-10-25 09:11:00,
2013-10-25 05:16:00,34.6,16.0,29.50,WSW,257,3.3,4.3,46,0.00,,,0.00,WSDL version 342,2013-10-25 09:16:00,
2013-10-25 05:21:00,34.6,15.9,29.50,West,264,3.6,8.5,46,0.00,,,0.00,WSDL version 342,2013-10-25 09:21:00,
2013-10-25 05:26:00,34.5,15.9,29.50,WNW,283,3.1,8.5,46,0.00,,,0.00,WSDL version 342,2013-10-25 09:26:00,
2013-10-25 05:31:00,34.5,16.3,29.50,WNW,293,3.1,4.9,47,0.00,,,0.00,WSDL version 342,2013-10-25 09:31:00,
2013-10-25 05:36:00,34.5,16.4,29.50,West,264,3.5,6.3,47,0.00,,,0.00,WSDL version 342,2013-10-25 09:36:00,
2013-10-25 05:41:00,34.5,16.4,29.50,West,278,3.2,6.3,47,0.00,,,0.00,WSDL version 342,2013-10-25 09:41:00,
2013-10-25 05:46:00,34.4,16.7,29.50,WNW,286,3.3,4.7,48,0.00,,,0.00,WSDL version 342,2013-10-25 09:46:00,
2013-10-25 05:51:00,34.3,16.7,29.50,WNW,283,3.2,4.9,48,0.00,,,0.00,WSDL version 342,2013-10-25 09:51:00,
2013-10-25 05:56:00,34.3,16.7,29.50,West,274,3.7,5.8,48,0.00,,,0.00,WSDL version 342,2013-10-25 09:56:00,
2013-10-25 06:01:00,34.3,16.7,29.53,WNW,293,3.8,5.8,48,0.00,,,0.00,WSDL version 342,2013-10-25 10:01:00,
2013-10-25 06:06:00,34.3,16.7,29.53,WNW,286,3.0,5.8,48,0.00,,,0.00,WSDL version 342,2013-10-25 10:06:00,
2013-10-25 06:11:00,34.3,16.9,29.53,WNW,287,2.9,4.3,49,0.00,,,0.00,WSDL version 342,2013-10-25 10:11:00,
2013-10-25 06:16:00,34.3,17.2,29.53,WNW,293,3.1,4.9,49,0.00,,,0.00,WSDL version 342,2013-10-25 10:16:00,
2013-10-25 06:21:00,34.3,17.5,29.53,West,270,3.2,5.8,50,0.00,,,0.00,WSDL version 342,2013-10-25 10:21:00,
2013-10-25 06:26:00,34.3,17.6,29.53,West,274,3.0,5.8,50,0.00,,,0.00,WSDL version 342,2013-10-25 10:26:00,
2013-10-25 06:31:00,34.3,17.6,29.53,West,260,3.0,5.4,50,0.00,,,0.00,WSDL version 342,2013-10-25 10:31:00,
2013-10-25 06:37:00,34.3,17.6,29.53,West,273,2.8,4.3,50,0.00,,,0.00,WSDL version 342,2013-10-25 10:37:00,
2013-10-25 06:42:00,34.3,17.6,29.53,WNW,293,3.0,4.3,50,0.00,,,0.00,WSDL version 342,2013-10-25 10:42:00,
2013-10-25 06:47:00,34.3,17.6,29.56,West,276,2.8,5.4,50,0.00,,,0.00,WSDL version 342,2013-10-25 10:47:00,
2013-10-25 06:52:00,34.3,17.6,29.56,West,276,2.9,5.4,50,0.00,,,0.00,WSDL version 342,2013-10-25 10:52:00,
2013-10-25 06:59:00,34.3,17.6,29.56,WNW,293,3.1,5.4,50,0.00,,,0.00,WSDL version 342,2013-10-25 10:59:00,
2013-10-25 07:04:00,34.3,17.6,29.56,West,273,3.0,4.9,50,0.00,,,0.00,WSDL version 342,2013-10-25 11:04:00,
2013-10-25 07:09:00,34.3,17.9,29.56,West,267,3.1,4.5,51,0.00,,,0.00,WSDL version 342,2013-10-25 11:09:00,
2013-10-25 07:14:00,34.3,18.0,29.56,WNW,286,3.2,5.6,51,0.00,,,0.00,WSDL version 342,2013-10-25 11:14:00,
2013-10-25 07:19:00,34.3,18.1,29.56,NW,305,3.3,5.6,51,0.00,,,0.00,WSDL version 342,2013-10-25 11:19:00,
2013-10-25 07:24:00,34.3,18.1,29.56,WNW,299,3.2,4.5,51,0.00,,,0.00,WSDL version 342,2013-10-25 11:24:00,
2013-10-25 07:29:00,34.3,18.1,29.56,WNW,283,3.0,4.5,51,-99.99,,,-99.99,WSDL version 342,2013-10-25 11:29:00,
2013-10-25 07:34:00,34.3,18.1,29.56,West,280,3.0,4.0,51,0.00,,,0.00,WSDL version 342,2013-10-25 11:34:00,
2013-10-25 07:39:00,34.3,18.1,29.56,West,270,3.2,4.0,51,0.00,,,0.00,WSDL version 342,2013-10-25 11:39:00,
2013-10-25 07:44:00,34.4,18.5,29.56,West,276,3.9,7.4,52,0.00,,,0.00,WSDL version 342,2013-10-25 11:44:00,
2013-10-25 07:49:00,34.5,18.5,29.56,West,270,3.2,7.4,51,0.00,,,0.00,WSDL version 342,2013-10-25 11:49:00,
2013-10-25 07:54:00,34.6,18.5,29.56,West,279,3.4,7.2,52,0.00,,,0.00,WSDL version 342,2013-10-25 11:54:00,
2013-10-25 07:59:00,34.8,18.7,29.56,WNW,295,3.0,5.4,51,0.00,,,0.00,WSDL version 342,2013-10-25 11:59:00,
2013-10-25 08:04:00,34.9,18.6,29.56,WNW,293,3.4,4.3,51,0.00,,,0.00,WSDL version 342,2013-10-25 12:04:00,
2013-10-25 08:09:00,35.1,18.8,29.56,NW,309,2.8,5.4,51,0.00,,,0.00,WSDL version 342,2013-10-25 12:09:00,
2013-10-25 08:14:00,35.2,18.9,29.56,West,278,2.9,5.4,51,0.00,,,0.00,WSDL version 342,2013-10-25 12:14:00,
2013-10-25 08:19:00,35.3,19.0,29.59,WNW,285,3.1,4.7,51,0.00,,,0.00,WSDL version 342,2013-10-25 12:19:00,
2013-10-25 08:24:00,35.5,19.0,29.59,West,281,3.4,4.7,50,0.00,,,0.00,WSDL version 342,2013-10-25 12:24:00,
2013-10-25 08:29:00,35.7,18.9,29.59,West,278,2.9,4.3,50,0.00,,,0.00,WSDL version 342,2013-10-25 12:29:00,
2013-10-25 08:34:00,35.8,19.0,29.59,WNW,296,2.7,4.9,50,0.00,,,0.00,WSDL version 342,2013-10-25 12:34:00,
2013-10-25 08:39:00,35.9,19.1,29.59,NW,304,3.1,4.9,50,0.00,,,0.00,WSDL version 342,2013-10-25 12:39:00,
2013-10-25 08:44:00,36.3,19.5,29.59,WNW,293,3.2,4.3,50,0.00,,,0.00,WSDL version 342,2013-10-25 12:44:00,
2013-10-25 08:49:00,36.6,19.1,29.62,WNW,289,3.3,5.4,48,0.00,,,0.00,WSDL version 342,2013-10-25 12:49:00,
2013-10-25 08:54:00,36.9,19.1,29.62,West,270,3.6,5.8,48,0.00,,,0.00,WSDL version 342,2013-10-25 12:54:00,
2013-10-25 08:59:00,37.4,19.3,29.62,West,266,2.9,5.8,48,0.00,,,0.00,WSDL version 342,2013-10-25 12:59:00,
2013-10-25 09:04:00,37.8,19.6,29.62,West,270,3.4,5.8,47,0.00,,,0.00,WSDL version 342,2013-10-25 13:04:00,
2013-10-25 09:09:00,38.2,18.4,29.62,NW,321,3.5,5.8,44,0.00,,,0.00,WSDL version 342,2013-10-25 13:09:00,
2013-10-25 09:14:00,38.7,18.7,29.62,NW,315,3.4,5.8,43,0.00,,,0.00,WSDL version 342,2013-10-25 13:14:00,
2013-10-25 09:19:00,39.2,17.9,29.62,WSW,244,4.1,6.0,41,0.00,,,0.00,WSDL version 342,2013-10-25 13:19:00,
2013-10-25 09:24:00,39.3,17.8,29.62,WNW,283,2.9,6.5,42,0.00,,,0.00,WSDL version 342,2013-10-25 13:24:00,
2013-10-25 09:29:00,39.7,17.9,29.62,WSW,255,3.9,6.5,41,0.00,,,0.00,WSDL version 342,2013-10-25 13:29:00,
2013-10-25 09:34:00,40.0,17.6,29.62,NW,320,3.8,6.3,40,0.00,,,0.00,WSDL version 342,2013-10-25 13:34:00,
2013-10-25 09:39:00,40.3,17.9,29.62,West,273,3.6,8.7,40,0.00,,,0.00,WSDL version 342,2013-10-25 13:39:00,
2013-10-25 09:46:00,40.9,18.0,29.59,West,270,3.7,8.7,39,0.00,,,0.00,WSDL version 342,2013-10-25 13:46:00,
2013-10-25 09:51:00,41.1,18.1,29.59,West,273,4.0,6.5,39,0.00,,,0.00,WSDL version 342,2013-10-25 13:51:00,
2013-10-25 09:56:00,41.4,17.7,29.59,WSW,242,4.6,5.8,38,0.00,,,0.00,WSDL version 342,2013-10-25 13:56:00,
2013-10-25 10:01:00,41.9,17.8,29.62,WNW,283,4.2,6.5,37,0.00,,,0.00,WSDL version 342,2013-10-25 14:01:00,
2013-10-25 10:06:00,42.2,18.1,29.62,West,273,2.6,6.5,38,0.00,,,0.00,WSDL version 342,2013-10-25 14:06:00,
2013-10-25 10:11:00,42.7,18.1,29.62,NW,321,3.2,7.4,36,-99.99,,,-99.99,WSDL version 342,2013-10-25 14:11:00,
2013-10-25 10:16:00,43.0,17.2,29.62,WNW,293,3.1,7.4,35,0.00,,,0.00,WSDL version 342,2013-10-25 14:16:00,
2013-10-25 10:21:00,43.6,17.5,29.62,WSW,248,4.1,6.7,34,0.00,,,0.00,WSDL version 342,2013-10-25 14:21:00,
2013-10-25 10:26:00,43.9,16.5,29.62,WNW,290,3.9,7.2,32,0.00,,,0.00,WSDL version 342,2013-10-25 14:26:00,
2013-10-25 10:31:00,44.2,16.2,29.62,West,270,3.1,7.2,32,0.00,,,0.00,WSDL version 342,2013-10-25 14:31:00,
2013-10-25 10:36:00,44.5,15.4,29.62,NW,307,4.2,6.3,30,0.00,,,0.00,WSDL version 342,2013-10-25 14:36:00,
2013-10-25 10:41:00,45.0,15.4,29.62,West,273,4.5,7.6,30,0.00,,,0.00,WSDL version 342,2013-10-25 14:41:00,
2013-10-25 10:46:00,45.3,15.7,29.62,WNW,289,3.3,7.6,30,0.00,,,0.00,WSDL version 342,2013-10-25 14:46:00,
2013-10-25 10:51:00,45.9,15.7,29.62,WSW,248,4.8,7.4,29,0.00,,,0.00,WSDL version 342,2013-10-25 14:51:00,
2013-10-25 10:56:00,46.0,15.5,29.62,West,279,5.3,7.8,29,0.00,,,0.00,WSDL version 342,2013-10-25 14:56:00,
2013-10-25 11:01:00,46.0,15.1,29.62,WNW,301,3.8,7.8,29,0.00,,,0.00,WSDL version 342,2013-10-25 15:01:00,
2013-10-25 11:06:00,46.2,15.2,29.62,West,266,3.9,12.3,28,0.00,,,0.00,WSDL version 342,2013-10-25 15:06:00,
2013-10-25 11:12:00,46.5,15.1,29.62,West,263,4.4,12.3,28,0.00,,,0.00,WSDL version 342,2013-10-25 15:12:00,
2013-10-25 11:17:00,46.4,15.1,29.62,WSW,244,3.7,8.7,28,0.00,,,0.00,WSDL version 342,2013-10-25 15:17:00,
2013-10-25 11:22:00,46.8,15.4,29.62,North,360,5.3,10.5,28,0.00,,,0.00,WSDL version 342,2013-10-25 15:22:00,
2013-10-25 11:27:00,47.3,15.4,29.62,WSW,248,5.2,10.5,27,0.00,,,0.00,WSDL version 342,2013-10-25 15:27:00,
2013-10-25 11:32:00,47.4,15.1,29.62,WNW,285,4.8,10.1,27,0.00,,,0.00,WSDL version 342,2013-10-25 15:32:00,
2013-10-25 11:37:00,48.1,15.7,29.62,West,278,3.9,10.1,27,0.00,,,0.00,WSDL version 342,2013-10-25 15:37:00,
2013-10-25 11:42:00,48.5,16.0,29.62,WSW,253,3.2,9.6,27,0.00,,,0.00,WSDL version 342,2013-10-25 15:42:00,
2013-10-25 11:47:00,48.8,16.3,29.62,WNW,293,5.1,8.7,27,0.00,,,0.00,WSDL version 342,2013-10-25 15:47:00,
2013-10-25 11:52:00,48.8,15.5,29.62,WNW,293,4.0,8.7,26,0.00,,,0.00,WSDL version 342,2013-10-25 15:52:00,
2013-10-25 11:57:00,49.2,15.8,29.62,WSW,253,3.5,8.5,26,0.00,,,0.00,WSDL version 342,2013-10-25 15:57:00,
2013-10-25 12:02:00,49.4,15.5,29.59,NW,315,3.7,8.5,26,0.00,,,0.00,WSDL version 342,2013-10-25 16:02:00,
2013-10-25 12:07:00,49.5,15.1,29.59,NW,326,4.3,8.5,26,-99.99,,,-99.99,WSDL version 342,2013-10-25 16:07:00,
2013-10-25 12:12:00,49.9,15.0,29.59,NW,306,2.9,7.6,24,0.00,,,0.00,WSDL version 342,2013-10-25 16:12:00,
2013-10-25 12:17:00,50.6,15.1,29.59,West,263,3.5,5.4,24,-99.99,,,-99.99,WSDL version 342,2013-10-25 16:17:00,
2013-10-25 12:22:00,51.2,14.1,29.59,West,266,5.4,13.0,24,-99.99,,,-99.99,WSDL version 342,2013-10-25 16:22:00,
2013-10-25 12:28:00,50.7,12.9,29.59,WNW,295,4.2,13.0,24,0.00,,,0.00,WSDL version 342,2013-10-25 16:28:00,
2013-10-25 12:33:00,50.7,13.2,29.59,WNW,300,3.8,8.1,21,0.00,,,0.00,WSDL version 342,2013-10-25 16:33:00,
2013-10-25 12:38:00,51.1,12.5,29.59,NW,315,2.6,8.1,21,0.00,,,0.00,WSDL version 342,2013-10-25 16:38:00,
2013-10-25 12:43:00,51.3,12.7,29.59,NNW,331,4.1,6.0,21,0.00,,,0.00,WSDL version 342,2013-10-25 16:43:00,
2013-10-25 12:48:00,51.9,13.2,29.59,WNW,289,4.8,6.5,21,0.00,,,0.00,WSDL version 342,2013-10-25 16:48:00,
2013-10-25 12:53:00,52.1,13.3,29.59,WSW,255,6.4,10.3,21,-99.99,,,-99.99,WSDL version 342,2013-10-25 16:53:00,
2013-10-25 12:58:00,52.5,13.7,29.59,WNW,293,5.7,10.3,21,0.00,,,0.00,WSDL version 342,2013-10-25 16:58:00,
2013-10-25 13:03:00,52.5,13.7,29.59,West,278,3.2,6.5,21,0.00,,,0.00,WSDL version 342,2013-10-25 17:03:00,
2013-10-25 13:08:00,53.2,13.9,29.59,West,263,3.9,7.8,20,0.00,,,0.00,WSDL version 342,2013-10-25 17:08:00,
2013-10-25 13:13:00,53.1,11.6,29.59,WSW,257,5.7,7.8,18,0.00,,,0.00,WSDL version 342,2013-10-25 17:13:00,
2013-10-25 13:18:00,52.7,10.4,29.59,NW,319,4.7,9.6,18,-99.99,,,-99.99,WSDL version 342,2013-10-25 17:18:00,
2013-10-25 13:23:00,52.1,9.9,29.59,WNW,297,6.1,11.0,18,0.00,,,0.00,WSDL version 342,2013-10-25 17:23:00,
2013-10-25 13:28:00,52.3,13.5,29.59,West,263,4.9,11.0,21,0.00,,,0.00,WSDL version 342,2013-10-25 17:28:00,
2013-10-25 13:33:00,52.0,10.7,29.59,West,263,4.5,8.1,21,0.00,,,0.00,WSDL version 342,2013-10-25 17:33:00,
2013-10-25 13:38:00,52.6,11.4,29.59,North,349,4.8,8.1,18,0.00,,,0.00,WSDL version 342,2013-10-25 17:38:00,
2013-10-25 13:43:00,52.9,10.6,29.59,WNW,301,4.3,7.8,18,0.00,,,0.00,WSDL version 342,2013-10-25 17:43:00,
2013-10-25 13:48:00,53.4,10.9,29.59,WNW,284,2.6,7.6,18,0.00,,,0.00,WSDL version 342,2013-10-25 17:48:00,
2013-10-25 13:53:00,53.4,11.0,29.59,West,264,4.5,9.8,18,0.00,,,0.00,WSDL version 342,2013-10-25 17:53:00,
2013-10-25 13:58:00,53.5,11.0,29.59,WNW,283,4.0,9.8,18,0.00,,,0.00,WSDL version 342,2013-10-25 17:58:00,
2013-10-25 14:03:00,54.4,11.8,29.59,WNW,302,3.2,10.1,18,0.00,,,0.00,WSDL version 342,2013-10-25 18:03:00,
2013-10-25 14:08:00,55.0,12.0,29.59,SSW,206,4.0,10.1,17,0.00,,,0.00,WSDL version 342,2013-10-25 18:08:00,
2013-10-25 14:13:00,55.2,11.8,29.59,WSW,242,3.8,7.4,18,-99.99,,,-99.99,WSDL version 342,2013-10-25 18:13:00,
2013-10-25 14:18:00,55.3,11.8,29.56,West,259,3.7,7.4,18,0.00,,,0.00,WSDL version 342,2013-10-25 18:18:00,
2013-10-25 14:23:00,55.5,11.4,29.56,WNW,296,5.4,8.1,17,0.00,,,0.00,WSDL version 342,2013-10-25 18:23:00,
2013-10-25 14:28:00,55.8,11.6,29.56,West,276,4.3,10.7,17,0.00,,,0.00,WSDL version 342,2013-10-25 18:28:00,
2013-10-25 14:33:00,56.3,12.0,29.59,WSW,242,5.3,10.7,17,0.00,,,0.00,WSDL version 342,2013-10-25 18:33:00,
2013-10-25 14:34:00,56.3,12.1,29.59,West,264,5.0,8.5,17,-99.99,,,-99.99,WSDL version 342,2013-10-25 18:34:00,
2013-10-25 14:39:00,55.7,12.1,29.59,West,274,5.0,8.5,18,0.00,,,0.00,WSDL version 342,2013-10-25 18:39:00,
2013-10-25 14:44:00,54.1,11.6,29.59,WSW,255,3.0,6.5,18,0.00,,,0.00,WSDL version 342,2013-10-25 18:44:00,
2013-10-25 14:49:00,55.3,11.9,29.59,West,281,4.6,7.2,18,0.00,,,0.00,WSDL version 342,2013-10-25 18:49:00,
2013-10-25 14:54:00,55.2,12.0,29.59,West,275,4.1,9.2,18,0.00,,,0.00,WSDL version 342,2013-10-25 18:54:00,
2013-10-25 14:59:00,53.6,11.2,29.59,WNW,289,5.2,9.2,18,0.00,,,0.00,WSDL version 342,2013-10-25 18:59:00,
2013-10-25 15:06:00,52.2,9.9,29.59,WNW,296,4.0,7.6,18,0.00,,,0.00,WSDL version 342,2013-10-25 19:06:00,
2013-10-25 15:11:00,52.5,10.2,29.59,West,278,3.0,7.2,18,0.00,,,0.00,WSDL version 342,2013-10-25 19:11:00,
2013-10-25 15:17:00,53.2,10.7,29.59,West,275,3.2,5.8,18,0.00,,,0.00,WSDL version 342,2013-10-25 19:17:00,
2013-10-25 15:22:00,52.8,10.5,29.59,West,267,3.8,4.9,18,0.00,,,0.00,WSDL version 342,2013-10-25 19:22:00,
2013-10-25 15:27:00,52.5,10.2,29.59,WNW,283,3.2,4.7,18,0.00,,,0.00,WSDL version 342,2013-10-25 19:27:00,
2013-10-25 15:32:00,52.3,10.0,29.59,WSW,251,2.2,6.0,18,0.00,,,0.00,WSDL version 342,2013-10-25 19:32:00,
2013-10-25 15:37:00,52.3,10.0,29.59,West,280,3.9,7.2,18,0.00,,,0.00,WSDL version 342,2013-10-25 19:37:00,
2013-10-25 15:42:00,52.8,10.4,29.59,West,263,3.8,7.6,18,0.00,,,0.00,WSDL version 342,2013-10-25 19:42:00,
2013-10-25 15:48:00,55.2,12.4,29.59,NNW,331,3.9,7.6,18,0.00,,,0.00,WSDL version 342,2013-10-25 19:48:00,
2013-10-25 15:53:00,55.3,12.2,29.59,West,280,4.0,7.8,17,0.00,,,0.00,WSDL version 342,2013-10-25 19:53:00,
2013-10-25 15:58:00,55.0,12.3,29.59,West,263,5.8,7.8,18,0.00,,,0.00,WSDL version 342,2013-10-25 19:58:00,
2013-10-25 16:03:00,54.8,12.1,29.59,WSW,245,4.3,7.4,18,0.00,,,0.00,WSDL version 342,2013-10-25 20:03:00,
2013-10-25 16:08:00,54.7,12.0,29.59,West,270,3.5,8.1,18,0.00,,,0.00,WSDL version 342,2013-10-25 20:08:00,
2013-10-25 16:13:00,54.6,11.9,29.59,WSW,257,5.1,9.4,18,-99.99,,,-99.99,WSDL version 342,2013-10-25 20:13:00,
2013-10-25 16:18:00,54.5,11.9,29.56,West,259,3.9,9.4,18,0.00,,,0.00,WSDL version 342,2013-10-25 20:18:00,
2013-10-25 16:23:00,54.2,11.6,29.56,WSW,255,4.1,7.4,18,0.00,,,0.00,WSDL version 342,2013-10-25 20:23:00,
2013-10-25 16:28:00,53.8,11.3,29.56,NW,308,4.7,7.8,18,0.00,,,0.00,WSDL version 342,2013-10-25 20:28:00,
2013-10-25 16:34:00,53.6,11.1,29.59,WNW,287,3.1,8.5,18,-99.99,,,-99.99,WSDL version 342,2013-10-25 20:34:00,
2013-10-25 16:39:00,53.7,11.2,29.59,WSW,242,5.3,8.5,18,0.00,,,0.00,WSDL version 342,2013-10-25 20:39:00,
2013-10-25 16:44:00,53.0,10.6,29.59,West,278,4.4,7.8,18,0.00,,,0.00,WSDL version 342,2013-10-25 20:44:00,
2013-10-25 16:49:00,53.0,10.6,29.59,WSW,251,3.6,7.6,18,0.00,,,0.00,WSDL version 342,2013-10-25 20:49:00,
2013-10-25 16:54:00,53.1,10.7,29.59,WNW,300,2.4,7.2,18,-99.99,,,-99.99,WSDL version 342,2013-10-25 20:54:00,
2013-10-25 16:59:00,53.1,10.7,29.59,West,267,3.2,6.9,18,0.00,,,0.00,WSDL version 342,2013-10-25 20:59:00,
2013-10-25 17:04:00,53.2,10.7,29.59,West,267,3.0,6.9,18,0.00,,,0.00,WSDL version 342,2013-10-25 21:04:00,
2013-10-25 17:09:00,52.8,10.5,29.59,West,276,3.4,6.5,18,0.00,,,0.00,WSDL version 342,2013-10-25 21:09:00,
2013-10-25 17:14:00,52.1,10.2,29.59,West,266,4.0,6.5,19,-99.99,,,-99.99,WSDL version 342,2013-10-25 21:14:00,
2013-10-25 17:19:00,51.3,10.4,29.59,West,275,2.3,6.0,19,0.00,,,0.00,WSDL version 342,2013-10-25 21:19:00,
2013-10-25 17:24:00,50.7,10.0,29.59,West,274,2.1,3.4,19,0.00,,,0.00,WSDL version 342,2013-10-25 21:24:00,
2013-10-25 17:29:00,50.2,9.5,29.59,West,278,1.6,3.4,19,0.00,,,0.00,WSDL version 342,2013-10-25 21:29:00,
2013-10-25 17:34:00,49.6,9.0,29.59,West,268,2.4,4.3,19,0.00,,,0.00,WSDL version 342,2013-10-25 21:34:00,
2013-10-25 17:39:00,49.0,8.5,29.59,West,275,2.3,4.3,19,0.00,,,0.00,WSDL version 342,2013-10-25 21:39:00,
2013-10-25 17:44:00,48.6,8.2,29.59,WSW,253,2.2,3.6,19,0.00,,,0.00,WSDL version 342,2013-10-25 21:44:00,
2013-10-25 17:49:00,48.2,9.2,29.62,West,259,2.3,3.6,22,0.00,,,0.00,WSDL version 342,2013-10-25 21:49:00,
2013-10-25 17:54:00,47.8,10.8,29.62,WNW,302,2.1,3.8,22,0.00,,,0.00,WSDL version 342,2013-10-25 21:54:00,
2013-10-25 17:59:00,47.6,10.6,29.62,WNW,300,2.2,3.8,22,0.00,,,0.00,WSDL version 342,2013-10-25 21:59:00,
2013-10-25 18:05:00,47.2,10.3,29.62,West,270,1.8,3.4,22,0.00,,,0.00,WSDL version 342,2013-10-25 22:05:00,
2013-10-25 18:10:00,46.9,10.1,29.62,West,270,2.3,3.4,22,0.00,,,0.00,WSDL version 342,2013-10-25 22:10:00,
2013-10-25 18:15:00,46.7,9.8,29.62,West,276,1.8,3.4,22,0.00,,,0.00,WSDL version 342,2013-10-25 22:15:00,
2013-10-25 18:20:00,46.4,9.6,29.62,West,281,1.7,3.4,22,0.00,,,0.00,WSDL version 342,2013-10-25 22:20:00,
2013-10-25 18:25:00,46.3,9.5,29.62,WNW,289,1.2,3.4,22,-99.99,,,-99.99,WSDL version 342,2013-10-25 22:25:00,
2013-10-25 18:30:00,46.1,9.4,29.62,WNW,289,1.4,2.5,22,0.00,,,0.00,WSDL version 342,2013-10-25 22:30:00,
2013-10-25 18:35:00,46.0,9.3,29.62,West,267,1.8,2.7,22,0.00,,,0.00,WSDL version 342,2013-10-25 22:35:00,
2013-10-25 18:40:00,45.9,11.3,29.62,WSW,248,2.2,2.9,25,0.00,,,0.00,WSDL version 342,2013-10-25 22:40:00,
2013-10-25 18:45:00,45.9,12.0,29.62,WNW,289,1.4,2.9,25,0.00,,,0.00,WSDL version 342,2013-10-25 22:45:00,
2013-10-25 18:50:00,45.9,12.0,29.62,West,279,1.8,2.7,25,0.00,,,0.00,WSDL version 342,2013-10-25 22:50:00,
2013-10-25 18:55:00,45.8,12.7,29.62,WNW,287,2.4,4.7,27,0.00,,,0.00,WSDL version 342,2013-10-25 22:55:00,
2013-10-25 19:00:00,45.9,13.8,29.62,NW,315,2.5,4.7,27,0.00,,,0.00,WSDL version 342,2013-10-25 23:00:00,
2013-10-25 19:05:00,45.7,13.7,29.62,West,278,2.0,2.9,27,0.00,,,0.00,WSDL version 342,2013-10-25 23:05:00,
2013-10-25 19:10:00,45.4,13.4,29.62,WNW,293,1.5,2.7,27,-99.99,,,-99.99,WSDL version 342,2013-10-25 23:10:00,
2013-10-25 19:15:00,45.1,13.1,29.62,WNW,293,1.5,2.5,27,0.00,,,0.00,WSDL version 342,2013-10-25 23:15:00,
2013-10-25 19:20:00,45.1,13.1,29.62,WNW,285,2.1,2.5,27,0.00,,,0.00,WSDL version 342,2013-10-25 23:20:00,
2013-10-25 19:25:00,44.9,12.9,29.62,West,270,1.3,2.5,27,0.00,,,0.00,WSDL version 342,2013-10-25 23:25:00,
2013-10-25 19:30:00,44.7,12.7,29.62,West,279,2.1,2.5,27,0.00,,,0.00,WSDL version 342,2013-10-25 23:30:00,
2013-10-25 19:35:00,44.4,13.1,29.62,West,270,1.3,2.5,28,0.00,,,0.00,WSDL version 342,2013-10-25 23:35:00,
2013-10-25 19:40:00,44.2,13.2,29.62,WSW,251,1.3,2.0,28,0.00,,,0.00,WSDL version 342,2013-10-25 23:40:00,
2013-10-25 19:45:00,44.1,13.0,29.62,West,270,0.0,2.0,28,0.00,,,0.00,WSDL version 342,2013-10-25 23:45:00,
2013-10-25 19:50:00,43.7,12.8,29.62,West,278,1.6,2.0,28,0.00,,,0.00,WSDL version 342,2013-10-25 23:50:00,
2013-10-25 19:55:00,43.5,12.6,29.62,West,267,1.3,2.0,28,0.00,,,0.00,WSDL version 342,2013-10-25 23:55:00,
2013-10-25 20:00:00,43.1,12.2,29.62,West,281,0.0,2.0,28,0.00,,,0.00,WSDL version 342,2013-10-26 00:00:00,
2013-10-25 20:05:00,42.8,12.0,29.62,NW,315,0.0,1.3,28,0.00,,,0.00,WSDL version 342,2013-10-26 00:05:00,
2013-10-25 20:10:00,42.6,12.5,29.62,WNW,289,0.0,0.0,29,0.00,,,0.00,WSDL version 342,2013-10-26 00:10:00,
2013-10-25 20:15:00,42.4,12.3,29.62,West,270,0.4,1.3,29,0.00,,,0.00,WSDL version 342,2013-10-26 00:15:00,
2013-10-25 20:20:00,42.3,12.3,29.62,WNW,293,1.1,1.6,29,0.00,,,0.00,WSDL version 342,2013-10-26 00:20:00,
2013-10-25 20:25:00,42.3,12.3,29.62,West,270,0.2,1.6,29,0.00,,,0.00,WSDL version 342,2013-10-26 00:25:00,
2013-10-25 20:30:00,42.1,12.1,29.62,West,267,0.9,1.6,29,0.00,,,0.00,WSDL version 342,2013-10-26 00:30:00,
2013-10-25 20:35:00,41.9,12.1,29.62,WNW,289,1.1,1.6,30,0.00,,,0.00,WSDL version 342,2013-10-26 00:35:00,
2013-10-25 20:40:00,41.5,12.4,29.62,WNW,290,1.4,2.2,30,0.00,,,0.00,WSDL version 342,2013-10-26 00:40:00,
2013-10-25 20:45:00,41.2,12.1,29.62,WNW,293,1.3,2.2,30,0.00,,,0.00,WSDL version 342,2013-10-26 00:45:00,
2013-10-25 20:50:00,41.1,12.6,29.62,West,266,0.0,2.0,31,0.00,,,0.00,WSDL version 342,2013-10-26 00:50:00,
2013-10-25 20:55:00,40.7,12.8,29.62,WSW,248,1.0,2.0,32,0.00,,,0.00,WSDL version 342,2013-10-26 00:55:00,
2013-10-25 21:00:00,40.6,13.0,29.62,WSW,248,1.6,2.5,32,0.00,,,0.00,WSDL version 342,2013-10-26 01:00:00,
2013-10-25 21:05:00,40.4,12.8,29.62,West,270,1.2,2.5,32,0.00,,,0.00,WSDL version 342,2013-10-26 01:05:00,
2013-10-25 21:10:00,40.0,13.0,29.62,West,279,1.3,2.5,33,-99.99,,,-99.99,WSDL version 342,2013-10-26 01:10:00,
2013-10-25 21:15:00,39.9,13.1,29.62,WNW,293,1.5,3.1,33,0.00,,,0.00,WSDL version 342,2013-10-26 01:15:00,
2013-10-25 21:21:00,39.9,13.5,29.62,WNW,298,1.3,3.1,34,0.00,,,0.00,WSDL version 342,2013-10-26 01:21:00,
2013-10-25 21:26:00,39.6,14.4,29.62,WNW,293,1.0,1.6,36,0.00,,,0.00,WSDL version 342,2013-10-26 01:26:00,
2013-10-25 21:31:00,39.4,14.0,29.62,WNW,293,0.4,1.6,35,0.00,,,0.00,WSDL version 342,2013-10-26 01:31:00,
2013-10-25 21:36:00,39.4,14.3,29.62,WNW,293,1.3,2.0,36,0.00,,,0.00,WSDL version 342,2013-10-26 01:36:00,
2013-10-25 21:41:00,39.1,15.1,29.62,WNW,296,0.3,2.0,38,0.00,,,0.00,WSDL version 342,2013-10-26 01:41:00,
2013-10-25 21:46:00,38.8,15.2,29.59,West,259,0.6,1.6,38,0.00,,,0.00,WSDL version 342,2013-10-26 01:46:00,
2013-10-25 21:51:00,38.7,15.8,29.59,WSW,248,0.0,1.3,39,0.00,,,0.00,WSDL version 342,2013-10-26 01:51:00,
2013-10-25 21:56:00,38.4,15.6,29.59,WSW,248,0.0,1.1,39,0.00,,,0.00,WSDL version 342,2013-10-26 01:56:00,
2013-10-25 22:01:00,38.3,15.5,29.59,WSW,248,0.0,1.1,39,0.00,,,0.00,WSDL version 342,2013-10-26 02:01:00,
2013-10-25 22:06:00,38.3,15.6,29.59,NW,304,0.6,2.0,39,0.00,,,0.00,WSDL version 342,2013-10-26 02:06:00,
2013-10-25 22:11:00,38.3,15.5,29.59,NW,315,1.1,2.0,39,0.00,,,0.00,WSDL version 342,2013-10-26 02:11:00,
2013-10-25 22:16:00,37.9,15.6,29.59,WNW,293,1.0,1.6,40,0.00,,,0.00,WSDL version 342,2013-10-26 02:16:00,
2013-10-25 22:21:00,37.5,15.4,29.59,WNW,293,0.4,1.3,40,0.00,,,0.00,WSDL version 342,2013-10-26 02:21:00,
2013-10-25 22:26:00,37.3,15.5,29.59,WNW,293,0.0,1.3,41,0.00,,,0.00,WSDL version 342,2013-10-26 02:26:00,
2013-10-25 22:31:00,37.0,15.5,29.59,WNW,287,0.2,1.6,41,0.00,,,0.00,WSDL version 342,2013-10-26 02:31:00,
2013-10-25 22:36:00,37.1,15.6,29.59,West,270,1.4,2.0,41,0.00,,,0.00,WSDL version 342,2013-10-26 02:36:00,
2013-10-25 22:41:00,37.0,15.5,29.59,NW,305,0.4,2.0,41,0.00,,,0.00,WSDL version 342,2013-10-26 02:41:00,
2013-10-25 22:46:00,37.0,15.7,29.59,NW,315,1.1,1.6,42,0.00,,,0.00,WSDL version 342,2013-10-26 02:46:00,
2013-10-25 22:52:00,36.9,15.9,29.59,West,275,0.9,1.6,42,0.00,,,0.00,WSDL version 342,2013-10-26 02:52:00,
2013-10-25 22:57:00,37.0,16.0,29.59,West,281,0.3,2.2,42,0.00,,,0.00,WSDL version 342,2013-10-26 02:57:00,
2013-10-25 23:02:00,36.8,15.8,29.59,NW,315,0.0,2.2,42,0.00,,,0.00,WSDL version 342,2013-10-26 03:02:00,
2013-10-25 23:07:00,36.4,15.9,29.59,West,270,0.0,1.3,43,0.00,,,0.00,WSDL version 342,2013-10-26 03:07:00,
2013-10-25 23:12:00,36.3,16.0,29.59,West,278,0.4,0.9,43,0.00,,,0.00,WSDL version 342,2013-10-26 03:12:00,
2013-10-25 23:18:00,36.2,15.9,29.59,WSW,251,0.3,2.2,43,0.00,,,0.00,WSDL version 342,2013-10-26 03:18:00,
2013-10-25 23:23:00,36.1,15.7,29.59,West,266,0.0,2.2,43,0.00,,,0.00,WSDL version 342,2013-10-26 03:23:00,
2013-10-25 23:28:00,35.9,15.8,29.59,WNW,293,0.0,0.0,44,0.00,,,0.00,WSDL version 342,2013-10-26 03:28:00,
2013-10-25 23:33:00,35.9,16.0,29.59,West,273,0.0,1.3,43,0.00,,,0.00,WSDL version 342,2013-10-26 03:33:00,
2013-10-25 23:38:00,35.9,15.9,29.59,WNW,293,1.6,2.0,43,0.00,,,0.00,WSDL version 342,2013-10-26 03:38:00,
2013-10-25 23:43:00,35.6,15.7,29.59,West,270,1.4,2.2,44,-99.99,,,-99.99,WSDL version 342,2013-10-26 03:43:00,
2013-10-25 23:48:00,35.2,15.9,29.59,West,264,1.1,2.2,45,0.00,,,0.00,WSDL version 342,2013-10-26 03:48:00,
2013-10-25 23:53:00,34.8,15.7,29.59,WNW,284,1.2,2.2,46,0.00,,,0.00,WSDL version 342,2013-10-26 03:53:00,
2013-10-25 23:58:00,34.6,15.9,29.59,WNW,293,0.0,2.2,46,0.00,,,0.00,WSDL version 342,2013-10-26 03:58:00,